Cleveland Burke, OH

1:57 AM EST on February 23, 2018 (GMT -0500)
Burke Lakefront

Weather History for KBKL - January, 2013

Change the Weather History Date:

Tuesday, January 15, 2013

  Actual Average Record
Temperature  
Mean Temperature 28 °F -  
Max Temperature 30 °F 30 °F 55 °F (2007)
Min Temperature 27 °F 20 °F -2 °F (2009)
Degree Days  
Heating Degree Days 36    
Moisture  
Dew Point 21 °F    
Average Humidity 72    
Maximum Humidity 75    
Minimum Humidity 66    
Precipitation  
Precipitation 0.00 in - - ()
Sea Level Pressure  
Sea Level Pressure 30.34 in    
Wind  
Wind Speed 7 mph (NNE)    
Max Wind Speed 10 mph    
Max Gust Speed -    
Visibility 10 miles    
Events      
Averages and records for this station are not official NWS values.
T = Trace of Precipitation, MM = Missing Value Source: NWS Daily Summary

Daily Weather History Graph

Daily Weather History Graph

Search for Another Location

Airport or City:

Trip Planner

Search our weather history database for the weather conditions in past years. The results will help you decide how hot, cold, wet, or windy it might be!

Date:

Astronomy

Jan. 15, 2013 Rise Set
Actual Time 7:50 AM EST 5:22 PM EST
Civil Twilight 7:20 AM EST 5:52 PM EST
Nautical Twilight 6:46 AM EST 6:26 PM EST
Astronomical Twilight 6:12 AM EST 7:00 PM EST
Moon 9:52 AM EST (1/15) 10:14 PM EST (1/15)
Length of Visible Light 10h 32m
Length of Day
9h 31m
Waxing Crescent, 19% of the Moon is Illuminated
Jan 15
Waxing Crescent
Jan 18
First Quarter
Jan 26
Full
Feb 3
Last Quarter
Feb 10
New

Hourly Weather History & Observations

Time (EST) Temp. Windchill Dew Point Humidity Pressure Visibility Wind Dir Wind Speed Gust Speed Precip Events Conditions
12:53 AM 28.0 °F 20.8 °F 21.0 °F 75% 30.38 in 10.0 mi WNW 6.9 mph - N/A   Overcast
1:53 AM 28.0 °F 20.8 °F 21.0 °F 75% 30.38 in 10.0 mi West 6.9 mph - N/A   Overcast
2:53 AM 28.9 °F 22.8 °F 21.0 °F 72% 30.39 in 10.0 mi WNW 5.8 mph - N/A   Overcast
3:53 AM 28.9 °F 19.8 °F 21.9 °F 75% 30.38 in 10.0 mi NW 10.4 mph - N/A   Overcast
4:53 AM 28.9 °F 19.8 °F 21.9 °F 75% 30.38 in 10.0 mi NNW 10.4 mph - N/A   Overcast
6:53 AM 28.0 °F 19.3 °F 21.0 °F 75% 30.40 in 10.0 mi NW 9.2 mph - N/A   Overcast
7:53 AM 27.0 °F 18.0 °F 19.9 °F 75% 30.43 in 10.0 mi NNW 9.2 mph - N/A   Overcast
8:53 AM 27.0 °F 19.5 °F 19.0 °F 72% 30.43 in 10.0 mi North 6.9 mph - N/A   Overcast
9:53 AM 28.0 °F 21.7 °F 19.9 °F 72% 30.43 in 10.0 mi North 5.8 mph - N/A   Overcast
10:53 AM 30.0 °F 24.1 °F 19.9 °F 66% 30.42 in 10.0 mi ENE 5.8 mph - N/A   Overcast
11:25 AM 28.4 °F 21.2 °F 19.4 °F 69% 30.38 in 10.0 mi NNE 6.9 mph - N/A   Scattered Clouds
11:53 AM 30.9 °F 25.2 °F 21.0 °F 67% 30.40 in 10.0 mi NNE 5.8 mph - N/A   Partly Cloudy
12:53 PM 30.9 °F 24.3 °F 21.0 °F 67% 30.38 in 10.0 mi North 6.9 mph - N/A   Mostly Cloudy
1:53 PM 30.9 °F 24.3 °F 21.0 °F 67% 30.33 in 10.0 mi NNE 6.9 mph - N/A   Mostly Cloudy
2:53 PM 30.9 °F 25.2 °F 21.9 °F 69% 30.35 in 10.0 mi NNE 5.8 mph - N/A   Mostly Cloudy
3:53 PM 30.0 °F 21.1 °F 21.9 °F 72% 30.32 in 10.0 mi NNE 10.4 mph - N/A   Clear
4:53 PM 28.9 °F 19.8 °F 21.9 °F 75% 30.32 in 10.0 mi NE 10.4 mph - N/A   Clear
5:53 PM 28.9 °F 20.4 °F 21.9 °F 75% 30.31 in 10.0 mi ENE 9.2 mph - N/A   Clear
6:53 PM 30.0 °F 23.2 °F 21.9 °F 72% 30.28 in 10.0 mi East 6.9 mph - N/A   Clear
7:53 PM 28.9 °F 21.9 °F 21.9 °F 75% 30.26 in 10.0 mi ENE 6.9 mph - N/A   Partly Cloudy
8:53 PM 30.0 °F 23.2 °F 21.9 °F 72% 30.23 in 10.0 mi ENE 6.9 mph - N/A   Mostly Cloudy
9:53 PM 30.0 °F 25.2 °F 21.9 °F 72% 30.21 in 10.0 mi ENE 4.6 mph - N/A   Overcast
10:53 PM 30.0 °F 25.2 °F 21.9 °F 72% 30.17 in 10.0 mi NE 4.6 mph - N/A   Overcast
11:53 PM 30.0 °F 24.1 °F 21.9 °F 72% 30.14 in 10.0 mi NE 5.8 mph - N/A   Scattered Clouds